Starlink 5372

operational
NORAD ID: 54838 Int'l Des: 2022-177 Owner: SPXS Country: US Constellation: starlink
LEOCIRCULAR

Über Starlink 5372

Beschreibung wird geladen...

Live-Position

3D-Globus wird geladen...

Nächste Überflüge

Höhenverlauf

Altitude vs Time

uPlot chart will show altitude changes over time

Zweizeiliger Elementsatz

1 54838U 22177U 25302.56200819 .00000462 00000-0 49247-4 0 9992
2 54838 43.0016 125.5541 0001072 275.1164 84.9556 15.02535946157238
Epoch: 29. Okt. 2025 • Age: 17 hours

Aktueller Status

Höhe 564.8 km
Geschwindigkeit 7.58 km/s
Subsatellitenpunkt -25.30°S, 50.51°W
Startdatum 28. Dez. 2022
Alter 2.8 years
Typ internet

Technische Details

Klassifizierung Payload
Masse 305.00 kg
Trockenmasse 290.00 kg
Gesamtmasse 305.00 kg
Länge 0.20 m
Durchmesser 2.80 m
Spannweite 9.00 m
Form Box + pan
Hersteller SPXS
Bus-Typ Starlink
Phasenstatus In Orbit
Besitzer/Staat SPXS/US

Große Konstellationen

Loading constellations...